Total_Precipitation_Accumulation
1.37 1.56 2.03 2.64 3.04 3.51 3.91 3.91 3.63 3.65 3.69 3.71 3.56 3.76 3.99 4.26 4.53 4.45 4.33 4.23 4.13 4.08 4.10 4.12 4.10 3.97 3.88 3.73 3.55 3.45 3.34 3.10 2.91 2.85 2.53 2.15 1.88 1.79 1.75 1.79 1.88 1.88 1.89
1.47 1.74 2.16 2.47 2.88 3.21 3.39 3.70 3.81 3.84 3.61 3.90 4.18 4.43 4.75 4.84 5.15 5.44 5.48 5.30 5.02 4.79 4.58 4.54 4.33 4.04 3.86 3.72 3.52 3.38 3.22 2.95 2.81 2.77 2.74 2.31 1.94 1.62 1.43 1.51 1.52 1.58 1.75
1.73 2.03 2.31 2.45 2.68 3.07 3.34 3.64 3.93 4.04 3.92 4.31 4.81 5.24 5.57 5.55 5.61 5.66 5.68 5.63 5.21 4.83 4.58 4.33 4.19 4.02 3.84 3.66 3.55 3.43 3.29 3.03 2.83 2.71 2.87 2.70 2.33 1.89 1.66 1.50 1.50 1.58 1.66
1.59 1.87 2.16 2.54 2.58 2.86 3.15 3.40 3.75 4.14 4.43 4.84 5.30 5.84 6.12 6.26 6.12 5.79 5.54 5.22 4.84 4.48 4.07 3.86 3.89 3.76 3.56 3.35 3.10 2.98 2.93 2.85 2.72 2.65 2.54 2.53 2.45 2.25 1.98 1.76 1.75 1.79 1.75
1.56 1.69 1.85 2.18 2.40 2.65 2.92 3.21 3.54 3.94 4.58 5.35 5.89 6.26 6.54 6.50 6.05 5.54 4.96 4.52 4.20 3.90 3.63 3.45 3.52 3.42 3.18 2.97 2.70 2.48 2.37 2.34 2.40 2.44 2.41 2.35 2.29 2.11 1.99 1.86 1.77 1.76 1.73
1.68 1.76 1.88 2.15 2.30 2.41 2.68 3.01 3.42 3.73 4.23 4.96 5.60 5.88 6.07 6.00 5.59 4.97 4.44 4.05 3.64 3.30 2.98 2.70 2.63 2.55 2.40 2.29 2.24 2.16 2.10 2.07 2.13 2.16 2.10 2.09 2.10 2.05 2.04 1.95 1.78 1.76 1.83
1.89 1.81 1.80 1.93 2.12 2.22 2.41 2.68 3.01 3.40 3.73 4.13 4.73 4.84 4.89 4.70 4.31 4.09 3.82 3.38 2.98 2.64 2.33 2.11 2.00 1.95 1.94 1.90 1.91 1.90 1.88 1.82 1.84 1.84 1.83 1.82 1.78 1.80 1.94 2.08 2.02 1.90 1.77
1.71 1.71 1.64 1.83 2.04 2.23 2.38 2.50 2.71 3.06 3.38 3.52 3.66 3.62 3.52 3.45 3.30 3.10 2.77 2.47 2.24 2.08 1.96 1.82 1.69 1.63 1.68 1.70 1.76 1.70 1.61 1.54 1.54 1.50 1.53 1.58 1.54 1.65 1.84 1.98 2.16 2.15 1.90
1.49 1.54 1.55 1.64 1.82 2.09 2.23 2.33 2.40 2.55 2.58 2.59 2.60 2.61 2.60 2.48 2.43 2.34 2.08 1.89 1.75 1.63 1.59 1.56 1.51 1.43 1.39 1.37 1.34 1.31 1.31 1.35 1.37 1.34 1.34 1.35 1.36 1.46 1.61 1.75 2.00 2.21 2.10
1.50 1.51 1.55 1.62 1.58 1.66 1.80 1.93 2.04 2.17 2.15 2.04 1.94 1.98 1.97 1.87 1.75 1.62 1.51 1.42 1.33 1.26 1.29 1.24 1.21 1.24 1.26 1.18 1.11 1.09 1.12 1.15 1.21 1.26 1.22 1.20 1.20 1.25 1.32 1.43 1.61 1.87 2.02
1.55 1.47 1.50 1.52 1.44 1.38 1.38 1.47 1.57 1.73 1.79 1.73 1.69 1.70 1.64 1.57 1.46 1.35 1.26 1.20 1.14 1.09 1.07 1.05 1.03 1.02 1.02 1.00 1.04 1.03 1.04 1.10 1.13 1.13 1.14 1.13 1.16 1.21 1.18 1.25 1.38 1.55 1.75
1.52 1.42 1.41 1.45 1.41 1.32 1.23 1.27 1.33 1.29 1.34 1.37 1.49 1.60 1.50 1.43 1.35 1.28 1.20 1.14 1.02 0.97 0.98 0.99 0.94 0.85 0.84 0.91 0.98 1.00 0.98 1.06 1.07 1.07 1.13 1.12 1.14 1.17 1.16 1.22 1.30 1.44 1.63
1.69 1.53 1.38 1.35 1.35 1.26 1.19 1.19 1.22 1.14 1.12 1.12 1.17 1.29 1.32 1.29 1.26 1.12 1.03 0.99 0.96 0.95 0.93 0.89 0.87 0.85 0.81 0.83 0.83 0.84 0.85 0.92 0.99 1.02 1.08 1.12 1.15 1.13 1.14 1.18 1.24 1.36 1.48
1.70 1.49 1.39 1.33 1.24 1.18 1.15 1.13 1.08 0.98 0.97 1.00 1.09 1.12 1.14 1.15 1.16 1.06 0.96 0.92 0.89 0.86 0.85 0.78 0.77 0.82 0.80 0.73 0.68 0.69 0.74 0.82 0.86 0.87 0.99 1.05 1.07 1.06 1.13 1.18 1.23 1.30 1.46
1.63 1.58 1.44 1.31 1.14 1.04 1.03 0.99 0.97 0.91 0.88 0.93 1.05 1.13 1.05 1.00 1.06 1.12 1.00 0.90 0.85 0.80 0.80 0.74 0.69 0.74 0.72 0.66 0.66 0.67 0.67 0.73 0.74 0.77 0.85 0.91 0.92 0.91 0.97 0.99 1.10 1.24 1.39
1.83 1.78 1.61 1.45 1.25 1.10 1.03 1.00 0.97 0.86 0.80 0.86 1.01 1.07 1.05 1.03 1.05 1.11 1.05 0.97 0.90 0.87 0.83 0.77 0.72 0.71 0.66 0.66 0.61 0.59 0.62 0.69 0.76 0.82 0.84 0.80 0.80 0.77 0.73 0.78 0.88 1.05 1.26
1.87 1.76 1.67 1.51 1.32 1.25 1.12 1.08 1.03 0.90 0.88 0.89 0.92 1.00 1.05 1.09 1.11 1.09 1.05 1.01 0.99 0.98 0.88 0.78 0.75 0.71 0.64 0.57 0.48 0.48 0.54 0.70 0.82 0.89 0.85 0.74 0.70 0.81 0.81 0.80 0.82 0.94 1.07
2.02 1.95 1.74 1.56 1.35 1.20 1.10 1.04 0.99 0.92 0.95 0.93 0.90 0.88 0.91 0.94 0.93 0.99 1.03 1.01 0.98 0.92 0.87 0.79 0.74 0.68 0.52 0.46 0.45 0.48 0.52 0.64 0.69 0.71 0.77 0.85 0.87 0.81 0.83 0.82 0.92 1.01 1.11
1.91 1.86 1.69 1.58 1.44 1.25 1.13 1.05 1.00 0.96 0.91 0.87 0.83 0.76 0.72 0.75 0.76 0.84 0.95 1.02 0.98 0.88 0.80 0.74 0.71 0.66 0.54 0.50 0.49 0.52 0.56 0.61 0.57 0.53 0.58 0.64 0.69 0.70 0.77 0.87 1.04 1.09 1.20
1.43 1.41 1.36 1.32 1.27 1.13 1.04 1.02 1.01 0.93 0.85 0.77 0.70 0.65 0.64 0.68 0.69 0.75 0.86 0.92 0.94 0.83 0.69 0.62 0.63 0.60 0.58 0.53 0.47 0.46 0.49 0.57 0.54 0.56 0.63 0.61 0.55 0.60 0.72 0.91 1.12 1.27 1.31
1.19 1.13 1.12 1.14 1.11 1.01 0.99 1.01 0.98 0.90 0.73 0.62 0.60 0.61 0.66 0.69 0.67 0.75 0.83 0.81 0.75 0.75 0.68 0.62 0.61 0.55 0.48 0.42 0.37 0.38 0.42 0.48 0.54 0.61 0.69 0.70 0.61 0.56 0.63 0.83 1.03 1.21 1.25
1.24 1.14 1.09 1.04 0.96 0.92 0.99 1.02 0.93 0.75 0.62 0.60 0.63 0.67 0.66 0.62 0.61 0.73 0.80 0.73 0.71 0.70 0.68 0.66 0.61 0.50 0.40 0.35 0.30 0.28 0.30 0.35 0.53 0.68 0.68 0.68 0.65 0.62 0.69 0.84 1.01 1.13 1.32
1.18 1.13 1.03 0.94 0.83 0.78 0.83 0.87 0.74 0.56 0.52 0.58 0.66 0.68 0.63 0.70 0.70 0.67 0.67 0.67 0.69 0.61 0.56 0.56 0.53 0.49 0.44 0.37 0.28 0.25 0.26 0.32 0.45 0.61 0.65 0.62 0.60 0.70 0.91 1.03 1.13 1.28 1.50
0.99 0.90 0.85 0.80 0.71 0.63 0.60 0.60 0.50 0.48 0.54 0.62 0.64 0.62 0.65 0.76 0.75 0.65 0.56 0.54 0.53 0.49 0.46 0.47 0.46 0.47 0.47 0.37 0.31 0.32 0.32 0.36 0.44 0.56 0.68 0.73 0.75 0.92 1.13 1.27 1.37 1.46 1.54
0.80 0.72 0.70 0.66 0.55 0.50 0.47 0.42 0.39 0.43 0.54 0.57 0.60 0.60 0.62 0.66 0.71 0.61 0.48 0.44 0.38 0.31 0.31 0.33 0.34 0.42 0.41 0.30 0.28 0.31 0.34 0.39 0.44 0.53 0.71 0.86 0.90 1.03 1.18 1.31 1.38 1.43 1.43
0.67 0.64 0.59 0.55 0.48 0.46 0.43 0.40 0.36 0.39 0.50 0.54 0.52 0.47 0.50 0.53 0.55 0.55 0.48 0.32 0.19 0.15 0.14 0.14 0.19 0.23 0.24 0.22 0.21 0.24 0.29 0.35 0.45 0.61 0.88 0.96 0.94 0.99 1.09 1.20 1.30 1.29 1.26